This is the latest recevied weather packets stored in our database for station/object IA5ITY-13. If no packets are shown the sender has not sent any weather packets the latest 10 day(s).
| Time | Temp. | Humidity | Pressure | Rain* | Wind** | Luminosity | Snow |
|---|---|---|---|---|---|---|---|
| 1777807822 | 21.11° C | 55% | 1019.7 hPa | 0 mm | - | - | - |
| 1777807509 | 21.11° C | 55% | 1019.6 hPa | 0 mm | - | - | - |
| 1777807212 | 22.22° C | 55% | 1019.6 hPa | 0 mm | - | - | - |
| 1777806913 | 21.11° C | 60% | 1019.5 hPa | 0 mm | - | - | - |
| 1777806612 | 21.11° C | 57% | 1019.8 hPa | 0 mm | - | - | - |
| 1777806309 | 21.11° C | 57% | 1019.9 hPa | 0 mm | - | - | - |
| 1777806030 | 22.22° C | 56% | 1019.9 hPa | 0 mm | - | - | - |
| 1777805709 | 21.11° C | 55% | 1019.8 hPa | 0 mm | - | - | - |
| 1777805413 | 20° C | 63% | 1019.8 hPa | 0 mm | - | - | - |
| 1777805112 | 20° C | 58% | 1019.6 hPa | 0 mm | - | - | - |
| 1777804812 | 21.11° C | 57% | 1019.6 hPa | 0 mm | - | - | - |
| 1777804509 | 20° C | 59% | 1019.5 hPa | 0 mm | - | - | - |
| 1777804222 | 20° C | 57% | 1019.6 hPa | 0 mm | - | - | - |
| 1777803909 | 20° C | 56% | 1019.6 hPa | 0 mm | - | - | - |
| 1777803613 | 18.89° C | 60% | 1019.5 hPa | 0 mm | - | - | - |
| 1777803312 | 21.11° C | 54% | 1019.6 hPa | 0 mm | - | - | - |
| 1777803012 | 22.22° C | 54% | 1019.5 hPa | 0 mm | - | - | - |
| 1777802709 | 20° C | 59% | 1019.6 hPa | 0 mm | - | - | - |
| 1777802429 | 20° C | 61% | 1019.6 hPa | 0 mm | - | - | - |
| 1777802108 | 20° C | 64% | 1019.8 hPa | 0 mm | - | - | - |
| 1777801812 | 18.89° C | 66% | 1019.9 hPa | 0 mm | - | - | - |
| 1777801511 | 20° C | 64% | 1019.8 hPa | 0 mm | - | - | - |
| 1777801212 | 18.89° C | 65% | 1019.9 hPa | 0 mm | - | - | - |
| 1777800909 | 17.78° C | 67% | 1020 hPa | 0 mm | - | - | - |
| 1777800620 | 17.78° C | 64% | 1019.9 hPa | 0 mm | - | - | - |
* Rain latest hour (hover to see other rain measurements)
** Current wind speed in m/s (hover to see current wind gust speed)